Date String (YYYY-MM-DD hh:mm:ss) UTC,Instrument flags,absolute air pressure of the measurement (hPa),sample flow rate (lpm),inlet stack bypass flow (lpm),air temperature of the measurement (°C),ambient temperature measured by the external sensor (°C),aerosol sample conditioner tube jacket temperature (°C),OPC LED temperature (°C),internal box temperature (°C),relative humidity of the measurement (%),span deviation,mass concentration of particles derived from Lorenz-Mie calculation of OPC scattering (μg/m³),mass concentration of particles derived from Lorenz-Mie calculation of OPC scattering (μg/m³),mass concentration of particles derived from Lorenz-Mie calculation of OPC scattering (μg/m³)
DateTimeUTC,F1_M11,P_M11,Q1_M11,Q2_M11,T1_M11,T2_M11,T3_M11,T4_M11,T5_M11,U1_M11,ZSPAN_M11,X2_M11,X0_M11,X1_M11
2023-08-24 20:00:00,SystemResetWarning,0833.3,5.01,000.00,027.4,024.1,000.0,035.6,028.9,31.8,0001.5,0007.44,0014.45,0006.53
2023-08-24 20:01:00,SystemResetWarning,0832.8,5.01,000.00,027.4,024.4,000.0,035.6,028.9,31.9,0001.1,0007.39,0015.01,0006.51
2023-08-24 20:02:00,SystemResetWarning,0832.8,5.00,000.00,027.4,024.9,000.0,035.7,029.1,32.2,0001.0,0007.38,0014.70,0006.51
2023-08-24 20:03:00,SystemResetWarning,0832.9,5.00,000.00,027.4,025.4,000.0,035.7,029.2,32.5,0000.7,0007.40,0014.13,0006.53
2023-08-24 20:04:00,SystemResetWarning,0833.0,5.00,000.00,027.5,025.8,000.0,035.7,029.3,31.6,0000.7,0007.40,0013.55,0006.51
2023-08-24 20:05:00,SystemResetWarning,0833.4,5.00,000.00,027.6,026.2,000.0,035.8,029.4,31.4,0000.6,0007.41,0013.54,0006.51
2023-08-24 20:06:00,SystemResetWarning,0833.0,4.98,000.00,027.6,025.4,000.0,035.7,029.2,31.7,0000.3,0007.35,0012.84,0006.50
2023-08-24 20:07:00,SystemResetWarning,0833.3,5.01,000.00,027.5,024.2,000.0,035.6,029.0,32.8,0000.3,0007.36,0012.57,0006.51
2023-08-24 20:08:00,SystemResetWarning,0833.1,5.01,000.00,027.5,024.1,000.0,035.6,028.9,31.4,0000.4,0007.33,0012.30,0006.52
2023-08-24 20:09:00,SystemResetWarning,0832.8,4.99,000.00,027.4,024.5,000.0,035.6,029.0,31.5,0000.4,0007.30,0012.12,0006.51
2023-08-24 20:10:00,SystemResetWarning,0833.0,5.00,000.00,027.4,025.0,000.0,035.7,029.1,31.8,0000.4,0007.22,0012.64,0006.48
2023-08-24 20:11:00,SystemResetWarning,0833.1,5.01,000.00,027.5,025.4,000.0,035.7,029.2,32.0,0000.2,0007.25,0012.90,0006.48
2023-08-24 20:12:00,SystemResetWarning,0833.3,4.99,000.00,027.5,025.9,000.0,035.7,029.4,31.9,0000.2,0007.26,0012.41,0006.50
2023-08-24 20:13:00,SystemResetWarning,0833.3,5.00,000.00,027.6,026.2,000.0,035.8,029.5,31.9,0000.4,0007.31,0012.50,0006.51
2023-08-24 20:14:00,SystemResetWarning,0832.8,4.99,000.00,027.6,025.5,000.0,035.7,029.3,31.8,0000.4,0007.31,0012.60,0006.51
2023-08-24 20:15:00,SystemResetWarning,0833.0,5.00,000.00,027.5,024.3,000.0,035.6,029.0,31.9,0000.2,0007.31,0012.68,0006.52
2023-08-24 20:16:00,SystemResetWarning,0832.8,5.00,000.00,027.5,024.2,000.0,035.6,028.9,32.8,0000.0,0007.35,0013.28,0006.54
2023-08-24 20:17:00,SystemResetWarning,0832.8,5.01,000.00,027.4,024.5,000.0,035.6,029.0,33.1,0000.5,0007.44,0014.21,0006.56
2023-08-24 20:18:00,SystemResetWarning,0832.8,5.01,000.00,027.4,024.9,000.0,035.7,029.1,32.2,0000.7,0007.43,0014.38,0006.55
2023-08-24 20:19:00,SystemResetWarning,0832.8,5.00,000.00,027.5,025.4,000.0,035.7,029.2,31.7,0000.9,0007.46,0014.76,0006.54
2023-08-24 20:20:00,SystemResetWarning,0832.8,5.00,000.00,027.5,025.9,000.0,035.7,029.4,31.2,0001.0,0007.47,0015.51,0006.55
2023-08-24 20:21:00,SystemResetWarning,0832.7,5.00,000.00,027.6,025.8,000.0,035.7,029.4,30.6,0001.4,0007.48,0015.04,0006.56
2023-08-24 20:22:00,SystemResetWarning,0832.7,4.98,000.00,027.5,024.6,000.0,035.6,029.1,31.1,0001.4,0007.44,0015.40,0006.56
2023-08-24 20:23:00,SystemResetWarning,0832.6,5.01,000.00,027.4,024.0,000.0,035.6,028.9,31.8,0001.7,0007.42,0015.97,0006.53
2023-08-24 20:24:00,SystemResetWarning,0832.6,5.02,000.00,027.4,024.3,000.0,035.6,028.9,31.5,0001.2,0007.36,0015.86,0006.52
2023-08-24 20:25:00,SystemResetWarning,0832.7,4.99,000.00,027.4,024.7,000.0,035.6,029.0,31.6,0001.1,0007.33,0015.82,0006.52
2023-08-24 20:26:00,SystemResetWarning,0832.6,5.00,000.00,027.4,025.1,000.0,035.7,029.1,31.9,0001.3,0007.32,0015.82,0006.51
2023-08-24 20:27:00,SystemResetWarning,0832.7,5.00,000.00,027.5,025.6,000.0,035.7,029.3,32.3,0001.5,0007.32,0015.44,0006.50
2023-08-24 20:28:00,SystemResetWarning,0832.6,5.01,000.00,027.5,026.0,000.0,035.7,029.4,32.8,0001.3,0007.29,0014.81,0006.48
2023-08-24 20:29:00,SystemResetWarning,0832.7,5.00,000.00,027.6,026.0,000.0,035.7,029.4,33.3,0001.0,0007.25,0015.03,0006.47
2023-08-24 20:30:00,SystemResetWarning,0832.6,4.98,000.00,027.5,024.7,000.0,035.6,029.1,33.0,0000.7,0007.29,0015.38,0006.48
2023-08-24 20:31:00,SystemResetWarning,0832.5,5.01,000.00,027.5,024.1,000.0,035.6,028.9,32.7,0001.1,0007.30,0015.95,0006.48
2023-08-24 20:32:00,SystemResetWarning,0832.6,5.01,000.00,027.4,024.4,000.0,035.6,028.9,33.6,0001.0,0007.33,0016.24,0006.49
2023-08-24 20:33:00,SystemResetWarning,0832.5,5.00,000.00,027.4,024.8,000.0,035.6,029.0,33.2,0001.1,0007.34,0015.80,0006.48
2023-08-24 20:34:00,SystemResetWarning,0832.5,4.99,000.00,027.4,025.2,000.0,035.7,029.2,32.1,0001.2,0007.40,0015.14,0006.50
2023-08-24 20:35:00,SystemResetWarning,0832.5,5.00,000.00,027.5,025.7,000.0,035.7,029.3,31.4,0001.4,0007.46,0015.56,0006.49
2023-08-24 20:36:00,SystemResetWarning,0832.5,5.00,000.00,027.5,026.0,000.0,035.7,029.4,31.7,0001.6,0007.44,0015.93,0006.48
2023-08-24 20:37:00,SystemResetWarning,0832.5,4.98,000.00,027.6,025.2,000.0,035.7,029.2,32.4,0001.6,0007.43,0015.90,0006.48
2023-08-24 20:38:00,SystemResetWarning,0832.5,5.00,000.00,027.5,024.0,000.0,035.6,028.9,33.1,0001.4,0007.39,0015.78,0006.45
2023-08-24 20:39:00,SystemResetWarning,0832.5,5.01,000.00,027.4,024.0,000.0,035.6,028.9,33.2,0001.7,0007.34,0015.57,0006.45
2023-08-24 20:40:00,SystemResetWarning,0832.4,5.01,000.00,027.4,024.4,000.0,035.6,028.9,33.5,0001.9,0007.36,0015.14,0006.44
2023-08-24 20:41:00,SystemResetWarning,0832.4,5.00,000.00,027.4,024.9,000.0,035.6,029.0,34.2,0002.1,0007.34,0015.23,0006.42
2023-08-24 20:42:00,SystemResetWarning,0832.4,5.00,000.00,027.4,025.4,000.0,035.7,029.2,34.2,0002.1,0007.30,0015.64,0006.39
2023-08-24 20:43:00,SystemResetWarning,0832.3,5.01,000.00,027.5,025.8,000.0,035.7,029.3,33.6,0002.0,0007.27,0014.80,0006.37
2023-08-24 20:44:00,SystemResetWarning,0832.4,4.99,000.00,027.5,026.2,000.0,035.7,029.5,34.0,0001.6,0007.28,0014.84,0006.37
2023-08-24 20:45:00,SystemResetWarning,0832.4,5.00,000.00,027.6,026.1,000.0,035.7,029.4,33.4,0001.4,0007.26,0015.00,0006.35
2023-08-24 20:46:00,SystemResetWarning,0832.4,4.99,000.00,027.6,024.8,000.0,035.6,029.1,33.1,0001.5,0007.17,0015.24,0006.34
2023-08-24 20:47:00,SystemResetWarning,0832.3,5.01,000.00,027.5,024.2,000.0,035.6,028.9,33.7,0001.5,0007.16,0014.99,0006.34
2023-08-24 20:48:00,SystemResetWarning,0832.3,5.02,000.00,027.4,024.4,000.0,035.6,028.9,34.0,0001.6,0007.16,0014.97,0006.33
2023-08-24 20:49:00,SystemResetWarning,0832.3,4.99,000.00,027.4,024.8,000.0,035.6,029.0,34.2,0001.9,0007.21,0015.79,0006.34
2023-08-24 20:50:00,SystemResetWarning,0832.3,5.00,000.00,027.5,025.2,000.0,035.7,029.2,33.9,0001.9,0007.23,0016.14,0006.35
2023-08-24 20:51:00,SystemResetWarning,0832.3,5.00,000.00,027.5,025.7,000.0,035.7,029.3,33.6,0001.9,0007.29,0016.52,0006.36
2023-08-24 20:52:00,SystemResetWarning,0832.3,5.00,000.00,027.6,026.1,000.0,035.8,029.4,33.6,0001.7,0007.28,0016.32,0006.36
2023-08-24 20:53:00,SystemResetWarning,0832.3,4.98,000.00,027.6,025.2,000.0,035.7,029.2,33.0,0001.3,0007.28,0015.31,0006.36
2023-08-24 20:54:00,SystemResetWarning,0832.3,5.01,000.00,027.5,024.0,000.0,035.6,028.9,32.7,0001.0,0007.28,0014.93,0006.35
2023-08-24 20:55:00,SystemResetWarning,0832.3,5.01,000.00,027.4,024.1,000.0,035.6,028.9,32.0,0001.0,0007.28,0014.72,0006.34
2023-08-24 20:56:00,SystemResetWarning,0832.3,5.01,000.00,027.4,024.4,000.0,035.6,029.0,32.3,0001.4,0007.25,0014.88,0006.33
2023-08-24 20:57:00,SystemResetWarning,0832.3,5.00,000.00,027.4,024.9,000.0,035.7,029.1,32.8,0001.4,0007.29,0014.63,0006.34
2023-08-24 20:58:00,SystemResetWarning,0832.3,5.00,000.00,027.4,025.4,000.0,035.7,029.2,32.8,0001.4,0007.30,0014.53,0006.35
2023-08-24 20:59:00,SystemResetWarning,0832.3,5.00,000.00,027.5,025.8,000.0,035.7,029.4,31.6,0001.2,0007.32,0014.81,0006.35
